Year,Month,Day,Hour,Minute,Value (Times are PST for temperature in C)
2017,05,23,00,00,15.80
2017,05,23,00,01,15.80
2017,05,23,00,02,15.70
2017,05,23,00,03,15.70
2017,05,23,00,04,15.70
2017,05,23,00,05,15.70
2017,05,23,00,06,15.70
2017,05,23,00,07,15.70
2017,05,23,00,08,15.60
2017,05,23,00,09,15.60
2017,05,23,00,10,15.60
2017,05,23,00,11,15.60
2017,05,23,00,12,15.60
2017,05,23,00,13,15.50
2017,05,23,00,14,15.50
2017,05,23,00,15,15.50
2017,05,23,00,16,15.40
2017,05,23,00,17,15.40
2017,05,23,00,18,15.30
2017,05,23,00,19,15.30
2017,05,23,00,20,15.30
2017,05,23,00,21,15.20
2017,05,23,00,22,15.20
2017,05,23,00,23,15.20
2017,05,23,00,24,15.10
2017,05,23,00,25,15.10
2017,05,23,00,26,15.10
2017,05,23,00,27,15.10
2017,05,23,00,28,15.10
2017,05,23,00,29,15.10
2017,05,23,00,30,15.10
2017,05,23,00,31,15.00
2017,05,23,00,32,15.00
2017,05,23,00,33,15.00
2017,05,23,00,34,15.00
2017,05,23,00,35,15.10
2017,05,23,00,36,15.10
2017,05,23,00,37,15.10
2017,05,23,00,38,15.10
2017,05,23,00,39,15.20
2017,05,23,00,40,15.20
2017,05,23,00,41,15.30
2017,05,23,00,42,15.30
2017,05,23,00,43,15.40
2017,05,23,00,44,15.40
2017,05,23,00,45,15.50
2017,05,23,00,46,15.50
2017,05,23,00,47,15.50
2017,05,23,00,48,15.60
2017,05,23,00,49,15.60
2017,05,23,00,50,15.60
2017,05,23,00,51,15.60
2017,05,23,00,52,15.60
2017,05,23,00,53,15.50
2017,05,23,00,54,15.40
2017,05,23,00,55,15.30
2017,05,23,00,56,15.30
2017,05,23,00,57,15.20
2017,05,23,00,58,15.10
2017,05,23,00,59,15.00
2017,05,23,01,00,15.00
2017,05,23,01,01,14.90
2017,05,23,01,02,14.80
2017,05,23,01,03,14.80
2017,05,23,01,04,14.80
2017,05,23,01,05,14.80
2017,05,23,01,06,14.80
2017,05,23,01,07,14.80
2017,05,23,01,08,14.80
2017,05,23,01,09,14.80
2017,05,23,01,10,14.80
2017,05,23,01,11,14.80
2017,05,23,01,12,14.80
2017,05,23,01,13,14.80
2017,05,23,01,14,14.80
2017,05,23,01,15,14.80
2017,05,23,01,16,14.80
2017,05,23,01,17,14.80
2017,05,23,01,18,14.90
2017,05,23,01,19,14.90
2017,05,23,01,20,14.90
2017,05,23,01,21,15.00
2017,05,23,01,22,15.00
2017,05,23,01,23,15.10
2017,05,23,01,24,15.10
2017,05,23,01,25,15.20
2017,05,23,01,26,15.30
2017,05,23,01,27,15.30
2017,05,23,01,28,15.40
2017,05,23,01,29,15.40
2017,05,23,01,30,15.40
2017,05,23,01,31,15.40
2017,05,23,01,32,15.50
2017,05,23,01,33,15.50
2017,05,23,01,34,15.50
2017,05,23,01,35,15.50
2017,05,23,01,36,15.60
2017,05,23,01,37,15.60
2017,05,23,01,38,15.60
2017,05,23,01,39,15.60
2017,05,23,01,40,15.70
2017,05,23,01,41,15.70
2017,05,23,01,42,15.70
2017,05,23,01,43,15.70
2017,05,23,01,44,15.70
2017,05,23,01,45,15.70
2017,05,23,01,46,15.70
2017,05,23,01,47,15.70
2017,05,23,01,48,15.70
2017,05,23,01,49,15.70
2017,05,23,01,50,15.70
2017,05,23,01,51,15.70
2017,05,23,01,52,15.70
2017,05,23,01,53,15.70
2017,05,23,01,54,15.70
2017,05,23,01,55,15.70
2017,05,23,01,56,15.70
2017,05,23,01,57,15.70
2017,05,23,01,58,15.70
2017,05,23,01,59,15.70
2017,05,23,02,00,15.70
2017,05,23,02,01,15.70
2017,05,23,02,02,15.70
2017,05,23,02,03,15.70
2017,05,23,02,04,15.70
2017,05,23,02,05,15.70
2017,05,23,02,06,15.70
2017,05,23,02,07,15.70
2017,05,23,02,08,15.70
2017,05,23,02,09,15.70
2017,05,23,02,10,15.70
2017,05,23,02,11,15.70
2017,05,23,02,12,15.70
2017,05,23,02,13,15.70
2017,05,23,02,14,15.70
2017,05,23,02,15,15.70
2017,05,23,02,16,15.60
2017,05,23,02,17,15.60
2017,05,23,02,18,15.60
2017,05,23,02,19,15.60
2017,05,23,02,20,15.60
2017,05,23,02,21,15.60
2017,05,23,02,22,15.60
2017,05,23,02,23,15.60
2017,05,23,02,24,15.60
2017,05,23,02,25,15.60
2017,05,23,02,26,15.50
2017,05,23,02,27,15.50
2017,05,23,02,28,15.50
2017,05,23,02,29,15.50
2017,05,23,02,30,15.50
2017,05,23,02,31,15.40
2017,05,23,02,32,15.40
2017,05,23,02,33,15.40
2017,05,23,02,34,15.40
2017,05,23,02,35,15.40
2017,05,23,02,36,15.40
2017,05,23,02,37,15.40
2017,05,23,02,38,15.30
2017,05,23,02,39,15.30
2017,05,23,02,40,15.30
2017,05,23,02,41,15.30
2017,05,23,02,42,15.30
2017,05,23,02,43,15.30
2017,05,23,02,44,15.30
2017,05,23,02,45,15.30
2017,05,23,02,46,15.30
2017,05,23,02,47,15.30
2017,05,23,02,48,15.30
2017,05,23,02,49,15.30
2017,05,23,02,50,15.30
2017,05,23,02,51,15.30
2017,05,23,02,52,15.30
2017,05,23,02,53,15.30
2017,05,23,02,54,15.30
2017,05,23,02,55,15.30
2017,05,23,02,56,15.20
2017,05,23,02,57,15.20
2017,05,23,02,58,15.20
2017,05,23,02,59,15.20
2017,05,23,03,00,15.20
2017,05,23,03,01,15.20
2017,05,23,03,02,15.10
2017,05,23,03,03,15.00
2017,05,23,03,04,15.00
2017,05,23,03,05,14.90
2017,05,23,03,06,14.80
2017,05,23,03,07,14.80
2017,05,23,03,08,14.70
2017,05,23,03,09,14.60
2017,05,23,03,10,14.50
2017,05,23,03,11,14.50
2017,05,23,03,12,14.40
2017,05,23,03,13,14.30
2017,05,23,03,14,14.30
2017,05,23,03,15,14.20
2017,05,23,03,16,14.20
2017,05,23,03,17,14.10
2017,05,23,03,18,14.10
2017,05,23,03,19,14.00
2017,05,23,03,20,14.00
2017,05,23,03,21,13.90
2017,05,23,03,22,13.90
2017,05,23,03,23,13.80
2017,05,23,03,24,13.80
2017,05,23,03,25,13.80
2017,05,23,03,26,13.70
2017,05,23,03,27,13.70
2017,05,23,03,28,13.60
2017,05,23,03,29,13.60
2017,05,23,03,30,13.50
2017,05,23,03,31,13.40
2017,05,23,03,32,13.40
2017,05,23,03,33,13.30
2017,05,23,03,34,13.20
2017,05,23,03,35,13.20
2017,05,23,03,36,13.10
2017,05,23,03,37,13.00
2017,05,23,03,38,12.90
2017,05,23,03,39,12.90
2017,05,23,03,40,12.80
2017,05,23,03,41,12.80
2017,05,23,03,42,12.70
2017,05,23,03,43,12.70
2017,05,23,03,44,12.70
2017,05,23,03,45,12.60
2017,05,23,03,46,12.60
2017,05,23,03,47,12.50
2017,05,23,03,48,12.50
2017,05,23,03,49,12.40
2017,05,23,03,50,12.40
2017,05,23,03,51,12.30
2017,05,23,03,52,12.30
2017,05,23,03,53,12.30
2017,05,23,03,54,12.20
2017,05,23,03,55,12.20
2017,05,23,03,56,12.20
2017,05,23,03,57,12.20
2017,05,23,03,58,12.20
2017,05,23,03,59,12.10
2017,05,23,04,00,12.10
2017,05,23,04,01,12.10
2017,05,23,04,02,12.10
2017,05,23,04,03,12.10
2017,05,23,04,04,12.10
2017,05,23,04,05,12.00
2017,05,23,04,06,12.00
2017,05,23,04,07,12.00
2017,05,23,04,08,12.00
2017,05,23,04,09,11.90
2017,05,23,04,10,11.90
2017,05,23,04,11,11.90
2017,05,23,04,12,11.90
2017,05,23,04,13,11.90
2017,05,23,04,14,11.80
2017,05,23,04,15,11.80
2017,05,23,04,16,11.80
2017,05,23,04,17,11.80
2017,05,23,04,18,11.80
2017,05,23,04,19,11.80
2017,05,23,04,20,11.80
2017,05,23,04,21,11.70
2017,05,23,04,22,11.70
2017,05,23,04,23,11.70
2017,05,23,04,24,11.70
2017,05,23,04,25,11.70
2017,05,23,04,26,11.70
2017,05,23,04,27,11.60
2017,05,23,04,28,11.60
2017,05,23,04,29,11.60
2017,05,23,04,30,11.60
2017,05,23,04,31,11.50
2017,05,23,04,32,11.50
2017,05,23,04,33,11.50
2017,05,23,04,34,11.40
2017,05,23,04,35,11.40
2017,05,23,04,36,11.40
2017,05,23,04,37,11.40
2017,05,23,04,38,11.40
2017,05,23,04,39,11.30
2017,05,23,04,40,11.30
2017,05,23,04,41,11.30
2017,05,23,04,42,11.30
2017,05,23,04,43,11.30
2017,05,23,04,44,11.30
2017,05,23,04,45,11.30
2017,05,23,04,46,11.30
2017,05,23,04,47,11.30
2017,05,23,04,48,11.30
2017,05,23,04,49,11.30
2017,05,23,04,50,11.30
2017,05,23,04,51,11.30
2017,05,23,04,52,11.30
2017,05,23,04,53,11.20
2017,05,23,04,54,11.20
2017,05,23,04,55,11.20
2017,05,23,04,56,11.10
2017,05,23,04,57,11.10
2017,05,23,04,58,11.10
2017,05,23,04,59,11.00
2017,05,23,05,00,11.00
2017,05,23,05,01,10.90
2017,05,23,05,02,10.90
2017,05,23,05,03,10.80
2017,05,23,05,04,10.80
2017,05,23,05,05,10.70
2017,05,23,05,06,10.70
2017,05,23,05,07,10.60
2017,05,23,05,08,10.60
2017,05,23,05,09,10.60
2017,05,23,05,10,10.60
2017,05,23,05,11,10.60
2017,05,23,05,12,10.60
2017,05,23,05,13,10.60
2017,05,23,05,14,10.60
2017,05,23,05,15,10.50
2017,05,23,05,16,10.50
2017,05,23,05,17,10.40
2017,05,23,05,18,10.40
2017,05,23,05,19,10.30
2017,05,23,05,20,10.30
2017,05,23,05,21,10.20
2017,05,23,05,22,10.20
2017,05,23,05,23,10.10
2017,05,23,05,24,10.10
2017,05,23,05,25,10.00
2017,05,23,05,26,10.00
2017,05,23,05,27,10.00
2017,05,23,05,28,10.00
2017,05,23,05,29,10.00
2017,05,23,05,30,9.90
2017,05,23,05,31,9.90
2017,05,23,05,32,10.00
2017,05,23,05,33,9.90
2017,05,23,05,34,10.00
2017,05,23,05,35,9.90
2017,05,23,05,36,9.90
2017,05,23,05,37,9.90
2017,05,23,05,38,9.90
2017,05,23,05,39,9.90
2017,05,23,05,40,9.90
2017,05,23,05,41,9.90
2017,05,23,05,42,9.90
2017,05,23,05,43,9.90
2017,05,23,05,44,9.90
2017,05,23,05,45,9.90
2017,05,23,05,46,9.90
2017,05,23,05,47,9.90
2017,05,23,05,48,9.90
2017,05,23,05,49,9.90
2017,05,23,05,50,9.90
2017,05,23,05,51,9.80
2017,05,23,05,52,9.80
2017,05,23,05,53,9.80
2017,05,23,05,54,9.80
2017,05,23,05,55,9.80
2017,05,23,05,56,9.80
2017,05,23,05,57,9.80
2017,05,23,05,58,9.80
2017,05,23,05,59,9.80
2017,05,23,06,00,9.80
2017,05,23,06,01,9.80
2017,05,23,06,02,9.80
2017,05,23,06,03,9.80
2017,05,23,06,04,9.80
2017,05,23,06,05,9.80
2017,05,23,06,06,9.80
2017,05,23,06,07,9.80
2017,05,23,06,08,9.80
2017,05,23,06,09,9.80
2017,05,23,06,10,9.80
2017,05,23,06,11,9.80
2017,05,23,06,12,9.80
2017,05,23,06,13,9.80
2017,05,23,06,14,9.90
2017,05,23,06,15,9.90
2017,05,23,06,16,9.90
2017,05,23,06,17,10.00
2017,05,23,06,18,10.00
2017,05,23,06,19,10.10
2017,05,23,06,20,10.10
2017,05,23,06,21,10.20
2017,05,23,06,22,10.20
2017,05,23,06,23,10.30
2017,05,23,06,24,10.30
2017,05,23,06,25,10.40
2017,05,23,06,26,10.50
2017,05,23,06,27,10.50
2017,05,23,06,28,10.60
2017,05,23,06,29,10.60
2017,05,23,06,30,10.60
2017,05,23,06,31,10.60
2017,05,23,06,32,10.60
2017,05,23,06,33,10.60
2017,05,23,06,34,10.70
2017,05,23,06,35,10.70
2017,05,23,06,36,10.70
2017,05,23,06,37,10.80
2017,05,23,06,38,10.80
2017,05,23,06,39,10.90
2017,05,23,06,40,11.00
2017,05,23,06,41,11.00
2017,05,23,06,42,11.10
2017,05,23,06,43,11.10
2017,05,23,06,44,11.20
2017,05,23,06,45,11.20
2017,05,23,06,46,11.30
2017,05,23,06,47,11.30
2017,05,23,06,48,11.40
2017,05,23,06,49,11.50
2017,05,23,06,50,11.50
2017,05,23,06,51,11.60
2017,05,23,06,52,11.60
2017,05,23,06,53,11.70
2017,05,23,06,54,11.70
2017,05,23,06,55,11.80
2017,05,23,06,56,11.80
2017,05,23,06,57,11.90
2017,05,23,06,58,12.00
2017,05,23,06,59,12.20
2017,05,23,07,00,12.30
2017,05,23,07,01,12.40
2017,05,23,07,02,12.50
2017,05,23,07,03,12.60
2017,05,23,07,04,12.70
2017,05,23,07,05,12.80
2017,05,23,07,06,12.90
2017,05,23,07,07,13.00
2017,05,23,07,08,13.10
2017,05,23,07,09,13.10
2017,05,23,07,10,13.20
2017,05,23,07,11,13.30
2017,05,23,07,12,13.30
2017,05,23,07,13,13.40
2017,05,23,07,14,13.40
2017,05,23,07,15,13.50
2017,05,23,07,16,13.60
2017,05,23,07,17,13.60
2017,05,23,07,18,13.70
2017,05,23,07,19,13.70
2017,05,23,07,20,13.80
2017,05,23,07,21,13.80
2017,05,23,07,22,13.80
2017,05,23,07,23,13.90
2017,05,23,07,24,13.90
2017,05,23,07,25,14.00
2017,05,23,07,26,14.00
2017,05,23,07,27,14.10
2017,05,23,07,28,14.10
2017,05,23,07,29,14.20
2017,05,23,07,30,14.20
2017,05,23,07,31,14.20
2017,05,23,07,32,14.30
2017,05,23,07,33,14.30
2017,05,23,07,34,14.30
2017,05,23,07,35,14.30
2017,05,23,07,36,14.40
2017,05,23,07,37,14.40
2017,05,23,07,38,14.40
2017,05,23,07,39,14.40
2017,05,23,07,40,14.50
2017,05,23,07,41,14.50
2017,05,23,07,42,14.50
2017,05,23,07,43,14.60
2017,05,23,07,44,14.60
2017,05,23,07,45,14.60
2017,05,23,07,46,14.70
2017,05,23,07,47,14.70
2017,05,23,07,48,14.70
2017,05,23,07,49,14.70
2017,05,23,07,50,14.70
2017,05,23,07,51,14.80
2017,05,23,07,52,14.80
2017,05,23,07,53,14.80
2017,05,23,07,54,14.80
2017,05,23,07,55,14.90
2017,05,23,07,56,14.90
2017,05,23,07,57,14.90
2017,05,23,07,58,15.00
2017,05,23,07,59,15.00
2017,05,23,08,00,15.10
2017,05,23,08,01,15.10
2017,05,23,08,02,15.10
2017,05,23,08,03,15.20
2017,05,23,08,04,15.20
2017,05,23,08,05,15.30
2017,05,23,08,06,15.30
2017,05,23,08,07,15.30
2017,05,23,08,08,15.30
2017,05,23,08,09,15.30
2017,05,23,08,10,15.40
2017,05,23,08,11,15.40
2017,05,23,08,12,15.40
2017,05,23,08,13,15.50
2017,05,23,08,14,15.50
2017,05,23,08,15,15.60
2017,05,23,08,16,15.60
2017,05,23,08,17,15.60
2017,05,23,08,18,15.70
2017,05,23,08,19,15.70
2017,05,23,08,20,15.70
2017,05,23,08,21,15.70
2017,05,23,08,22,15.80
2017,05,23,08,23,15.80
2017,05,23,08,24,15.80
2017,05,23,08,25,15.80
2017,05,23,08,26,15.90
2017,05,23,08,27,15.90
2017,05,23,08,28,15.90
2017,05,23,08,29,16.00
2017,05,23,08,30,16.00
2017,05,23,08,31,16.00
2017,05,23,08,32,16.10
2017,05,23,08,33,16.10
2017,05,23,08,34,16.10
2017,05,23,08,35,16.10
2017,05,23,08,36,16.20
2017,05,23,08,37,16.20
2017,05,23,08,38,16.20
2017,05,23,08,39,16.20
2017,05,23,08,40,16.30
2017,05,23,08,41,16.30
2017,05,23,08,42,16.30
2017,05,23,08,43,16.40
2017,05,23,08,44,16.40
2017,05,23,08,45,16.40
2017,05,23,08,46,16.40
2017,05,23,08,47,16.50
2017,05,23,08,48,16.50
2017,05,23,08,49,16.60
2017,05,23,08,50,16.60
2017,05,23,08,51,16.60
2017,05,23,08,52,16.60
2017,05,23,08,53,16.60
2017,05,23,08,54,16.70
2017,05,23,08,55,16.70
2017,05,23,08,56,16.80
2017,05,23,08,57,16.80
2017,05,23,08,58,16.80
2017,05,23,08,59,16.80
2017,05,23,09,00,16.80
2017,05,23,09,01,16.80
2017,05,23,09,02,16.80
2017,05,23,09,03,16.90
2017,05,23,09,04,16.90
2017,05,23,09,05,16.90
2017,05,23,09,06,16.90
2017,05,23,09,07,17.00
2017,05,23,09,08,17.00
2017,05,23,09,09,17.10
2017,05,23,09,10,17.20
2017,05,23,09,11,17.30
2017,05,23,09,12,17.30
2017,05,23,09,13,17.40
2017,05,23,09,14,17.40
2017,05,23,09,15,17.40
2017,05,23,09,16,17.40
2017,05,23,09,17,17.40
2017,05,23,09,18,17.40
2017,05,23,09,19,17.40
2017,05,23,09,20,17.40
2017,05,23,09,21,17.40
2017,05,23,09,22,17.40
2017,05,23,09,23,17.40
2017,05,23,09,24,17.40
2017,05,23,09,25,17.40
2017,05,23,09,26,17.40
2017,05,23,09,27,17.40
2017,05,23,09,28,17.40
2017,05,23,09,29,17.40
2017,05,23,09,30,17.40
2017,05,23,09,31,17.40
2017,05,23,09,32,17.50
2017,05,23,09,33,17.50
2017,05,23,09,34,17.50
2017,05,23,09,35,17.60
2017,05,23,09,36,17.60
2017,05,23,09,37,17.60
2017,05,23,09,38,17.70
2017,05,23,09,39,17.70
2017,05,23,09,40,17.70
2017,05,23,09,41,17.70
2017,05,23,09,42,17.70
2017,05,23,09,43,17.70
2017,05,23,09,44,17.70
2017,05,23,09,45,17.70
2017,05,23,09,46,17.80
2017,05,23,09,47,17.80
2017,05,23,09,48,17.90
2017,05,23,09,49,17.90
2017,05,23,09,50,17.90
2017,05,23,09,51,17.90
2017,05,23,09,52,18.00
2017,05,23,09,53,18.00
2017,05,23,09,54,18.00
2017,05,23,09,55,18.00
2017,05,23,09,56,18.00
2017,05,23,09,57,18.00
2017,05,23,09,58,18.00
2017,05,23,09,59,18.10
2017,05,23,10,00,18.10
2017,05,23,10,01,18.10
2017,05,23,10,02,18.10
2017,05,23,10,03,18.10
2017,05,23,10,04,18.10
2017,05,23,10,05,18.20
2017,05,23,10,06,18.20
2017,05,23,10,07,18.20
2017,05,23,10,08,18.30
2017,05,23,10,09,18.30
2017,05,23,10,10,18.30
2017,05,23,10,11,18.30
2017,05,23,10,12,18.40
2017,05,23,10,13,18.50
2017,05,23,10,14,18.60
2017,05,23,10,15,18.60
2017,05,23,10,16,18.70
2017,05,23,10,17,18.70
2017,05,23,10,18,18.80
2017,05,23,10,19,18.80
2017,05,23,10,20,18.80
2017,05,23,10,21,18.80
2017,05,23,10,22,18.80
2017,05,23,10,23,18.80
2017,05,23,10,24,18.80
2017,05,23,10,25,18.80
2017,05,23,10,26,18.80
2017,05,23,10,27,18.80
2017,05,23,10,28,18.80
2017,05,23,10,29,18.90
2017,05,23,10,30,18.90
2017,05,23,10,31,19.00
2017,05,23,10,32,19.10
2017,05,23,10,33,19.20
2017,05,23,10,34,19.30
2017,05,23,10,35,19.50
2017,05,23,10,36,19.70
2017,05,23,10,37,19.80
2017,05,23,10,38,20.00
2017,05,23,10,39,20.10
2017,05,23,10,40,20.20
2017,05,23,10,41,20.20
2017,05,23,10,42,20.30
2017,05,23,10,43,20.30
2017,05,23,10,44,20.30
2017,05,23,10,45,20.30
2017,05,23,10,46,20.30
2017,05,23,10,47,20.40
2017,05,23,10,48,20.40
2017,05,23,10,49,20.50
2017,05,23,10,50,20.60
2017,05,23,10,51,20.60
2017,05,23,10,52,20.60
2017,05,23,10,53,20.50
2017,05,23,10,54,20.50
2017,05,23,10,55,20.50
2017,05,23,10,56,20.50
2017,05,23,10,57,20.50
2017,05,23,10,58,20.60
2017,05,23,10,59,20.70
2017,05,23,11,00,20.80
2017,05,23,11,01,20.80
2017,05,23,11,02,20.90
2017,05,23,11,03,21.00
2017,05,23,11,04,21.00
2017,05,23,11,05,21.10
2017,05,23,11,06,21.10
2017,05,23,11,07,21.10
2017,05,23,11,08,21.20
2017,05,23,11,09,21.10
2017,05,23,11,10,21.00
2017,05,23,11,11,21.00
2017,05,23,11,12,20.90
2017,05,23,11,13,20.90
2017,05,23,11,14,20.90
2017,05,23,11,15,20.80
2017,05,23,11,16,20.80
2017,05,23,11,17,20.80
2017,05,23,11,18,20.70
2017,05,23,11,19,20.70
2017,05,23,11,20,20.70
2017,05,23,11,21,20.60
2017,05,23,11,22,20.50
2017,05,23,11,23,20.50
2017,05,23,11,24,20.40
2017,05,23,11,25,20.30
2017,05,23,11,26,20.20
2017,05,23,11,27,20.20
2017,05,23,11,28,20.10
2017,05,23,11,29,20.10
2017,05,23,11,30,20.10
2017,05,23,11,31,20.00
2017,05,23,11,32,20.00
2017,05,23,11,33,20.00
2017,05,23,11,34,20.10
2017,05,23,11,35,20.10
2017,05,23,11,36,20.20
2017,05,23,11,37,20.30
2017,05,23,11,38,20.40
2017,05,23,11,39,20.50
2017,05,23,11,40,20.60
2017,05,23,11,41,20.60
2017,05,23,11,42,20.50
2017,05,23,11,43,20.50
2017,05,23,11,44,20.50
2017,05,23,11,45,20.50
2017,05,23,11,46,20.60
2017,05,23,11,47,20.60
2017,05,23,11,48,20.60
2017,05,23,11,49,20.60
2017,05,23,11,50,20.70
2017,05,23,11,51,20.70
2017,05,23,11,52,20.80
2017,05,23,11,53,20.80
2017,05,23,11,54,20.80
2017,05,23,11,55,20.80
2017,05,23,11,56,20.70
2017,05,23,11,57,20.70
2017,05,23,11,58,20.70
2017,05,23,11,59,20.70
2017,05,23,12,00,20.70
2017,05,23,12,01,20.80
2017,05,23,12,02,20.80
2017,05,23,12,03,20.80
2017,05,23,12,04,20.80
2017,05,23,12,05,20.80
2017,05,23,12,06,20.80
2017,05,23,12,07,20.90
2017,05,23,12,08,20.90
2017,05,23,12,09,20.90
2017,05,23,12,10,21.00
2017,05,23,12,11,21.00
2017,05,23,12,12,21.00
2017,05,23,12,13,21.00
2017,05,23,12,14,21.00
2017,05,23,12,15,21.00
2017,05,23,12,16,21.10
2017,05,23,12,17,21.10
2017,05,23,12,18,21.10
2017,05,23,12,19,21.10
2017,05,23,12,20,21.20
2017,05,23,12,21,21.20
2017,05,23,12,22,21.30
2017,05,23,12,23,21.30
2017,05,23,12,24,21.30
2017,05,23,12,25,21.30
2017,05,23,12,26,21.30
2017,05,23,12,27,21.30
2017,05,23,12,28,21.20
2017,05,23,12,29,21.20
2017,05,23,12,30,21.10
2017,05,23,12,31,21.00
2017,05,23,12,32,21.00
2017,05,23,12,33,20.90
2017,05,23,12,34,20.80
2017,05,23,12,35,20.80
2017,05,23,12,36,20.80
2017,05,23,12,37,20.80
2017,05,23,12,38,20.80
2017,05,23,12,39,20.80
2017,05,23,12,40,20.80
2017,05,23,12,41,20.90
2017,05,23,12,42,20.90
2017,05,23,12,43,21.00
2017,05,23,12,44,21.00
2017,05,23,12,45,21.10
2017,05,23,12,46,21.10
2017,05,23,12,47,21.20
2017,05,23,12,48,21.20
2017,05,23,12,49,21.10
2017,05,23,12,50,21.10
2017,05,23,12,51,21.00
2017,05,23,12,52,21.00
2017,05,23,12,53,21.00
2017,05,23,12,54,21.00
2017,05,23,12,55,21.10
2017,05,23,12,56,21.20
2017,05,23,12,57,21.30
2017,05,23,12,58,21.30
2017,05,23,12,59,21.30
2017,05,23,13,00,21.30
2017,05,23,13,01,21.30
2017,05,23,13,02,21.30
2017,05,23,13,03,21.40
2017,05,23,13,04,21.40
2017,05,23,13,05,21.50
2017,05,23,13,06,21.60
2017,05,23,13,07,21.60
2017,05,23,13,08,21.60
2017,05,23,13,09,21.70
2017,05,23,13,10,21.80
2017,05,23,13,11,22.00
2017,05,23,13,12,22.00
2017,05,23,13,13,22.10
2017,05,23,13,14,22.20
2017,05,23,13,15,22.20
2017,05,23,13,16,22.30
2017,05,23,13,17,22.30
2017,05,23,13,18,22.30
2017,05,23,13,19,22.30
2017,05,23,13,20,22.30
2017,05,23,13,21,22.40
2017,05,23,13,22,22.60
2017,05,23,13,23,22.70
2017,05,23,13,24,22.80
2017,05,23,13,25,22.90
2017,05,23,13,26,22.90
2017,05,23,13,27,23.00
2017,05,23,13,28,23.10
2017,05,23,13,29,23.10
2017,05,23,13,30,23.20
2017,05,23,13,31,23.40
2017,05,23,13,32,23.50
2017,05,23,13,33,23.50
2017,05,23,13,34,23.50
2017,05,23,13,35,23.50
2017,05,23,13,36,23.50
2017,05,23,13,37,23.50
2017,05,23,13,38,23.50
2017,05,23,13,39,23.60
2017,05,23,13,40,23.60
2017,05,23,13,41,23.70
2017,05,23,13,42,23.80
2017,05,23,13,43,23.80
2017,05,23,13,44,23.80
2017,05,23,13,45,23.70
2017,05,23,13,46,23.70
2017,05,23,13,47,23.70
2017,05,23,13,48,23.70
2017,05,23,13,49,23.80
2017,05,23,13,50,23.80
2017,05,23,13,51,23.90
2017,05,23,13,52,23.90
2017,05,23,13,53,23.90
2017,05,23,13,54,23.90
2017,05,23,13,55,23.80
2017,05,23,13,56,23.80
2017,05,23,13,57,23.80
2017,05,23,13,58,23.80
2017,05,23,13,59,23.80
2017,05,23,14,00,23.70
2017,05,23,14,01,23.70
2017,05,23,14,02,23.60
2017,05,23,14,03,23.50
2017,05,23,14,04,23.40
2017,05,23,14,05,23.30
2017,05,23,14,06,23.30
2017,05,23,14,07,23.30
2017,05,23,14,08,23.30
2017,05,23,14,09,23.20
2017,05,23,14,10,23.20
2017,05,23,14,11,23.20
2017,05,23,14,12,23.20
2017,05,23,14,13,23.20
2017,05,23,14,14,23.20
2017,05,23,14,15,23.20
2017,05,23,14,16,23.20
2017,05,23,14,17,23.20
2017,05,23,14,18,23.20
2017,05,23,14,19,23.20
2017,05,23,14,20,23.20
2017,05,23,14,21,23.20
2017,05,23,14,22,23.20
2017,05,23,14,23,23.30
2017,05,23,14,24,23.40
2017,05,23,14,25,23.40
2017,05,23,14,26,23.30
2017,05,23,14,27,23.30
2017,05,23,14,28,23.30
2017,05,23,14,29,23.30
2017,05,23,14,30,23.30
2017,05,23,14,31,23.20
2017,05,23,14,32,23.20
2017,05,23,14,33,23.10
2017,05,23,14,34,23.10
2017,05,23,14,35,23.10
2017,05,23,14,36,23.10
2017,05,23,14,37,23.10
2017,05,23,14,38,23.10
2017,05,23,14,39,23.10
2017,05,23,14,40,23.00
2017,05,23,14,41,23.00
2017,05,23,14,42,23.10
2017,05,23,14,43,23.00
2017,05,23,14,44,23.10
2017,05,23,14,45,23.10
2017,05,23,14,46,23.10
2017,05,23,14,47,23.10
2017,05,23,14,48,23.10
2017,05,23,14,49,23.20
2017,05,23,14,50,23.10
2017,05,23,14,51,23.10
2017,05,23,14,52,23.00
2017,05,23,14,53,23.00
2017,05,23,14,54,23.00
2017,05,23,14,55,23.00
2017,05,23,14,56,23.00
2017,05,23,14,57,22.90
2017,05,23,14,58,22.80
2017,05,23,14,59,22.70
2017,05,23,15,00,22.70
2017,05,23,15,01,22.60
2017,05,23,15,02,22.50
2017,05,23,15,03,22.40
2017,05,23,15,04,22.40
2017,05,23,15,05,22.40
2017,05,23,15,06,22.40
2017,05,23,15,07,22.40
2017,05,23,15,08,22.30
2017,05,23,15,09,22.30
2017,05,23,15,10,22.30
2017,05,23,15,11,22.30
2017,05,23,15,12,22.20
2017,05,23,15,13,22.20
2017,05,23,15,14,22.20
2017,05,23,15,15,22.20
2017,05,23,15,16,22.30
2017,05,23,15,17,22.30
2017,05,23,15,18,22.30
2017,05,23,15,19,22.40
2017,05,23,15,20,22.40
2017,05,23,15,21,22.50
2017,05,23,15,22,22.50
2017,05,23,15,23,22.60
2017,05,23,15,24,22.50
2017,05,23,15,25,22.60
2017,05,23,15,26,22.50
2017,05,23,15,27,22.50
2017,05,23,15,28,22.40
2017,05,23,15,29,22.30
2017,05,23,15,30,22.20
2017,05,23,15,31,22.20
2017,05,23,15,32,22.30
2017,05,23,15,33,22.30
2017,05,23,15,34,22.30
2017,05,23,15,35,22.30
2017,05,23,15,36,22.30
2017,05,23,15,37,22.20
2017,05,23,15,38,22.20
2017,05,23,15,39,22.20
2017,05,23,15,40,22.20
2017,05,23,15,41,22.20
2017,05,23,15,42,22.20
2017,05,23,15,43,22.20
2017,05,23,15,44,22.20
2017,05,23,15,45,22.10
2017,05,23,15,46,22.10
2017,05,23,15,47,22.00
2017,05,23,15,48,22.00
2017,05,23,15,49,22.00
2017,05,23,15,50,21.90
2017,05,23,15,51,21.90
2017,05,23,15,52,21.90
2017,05,23,15,53,21.80
2017,05,23,15,54,21.80
2017,05,23,15,55,21.80
2017,05,23,15,56,21.70
2017,05,23,15,57,21.70
2017,05,23,15,58,21.70
2017,05,23,15,59,21.70
2017,05,23,16,00,21.70
2017,05,23,16,01,21.80
2017,05,23,16,02,21.80
2017,05,23,16,03,21.90
2017,05,23,16,04,22.00
2017,05,23,16,05,22.00
2017,05,23,16,06,22.10
2017,05,23,16,07,22.10
2017,05,23,16,08,22.10
2017,05,23,16,09,22.00
2017,05,23,16,10,22.00
2017,05,23,16,11,21.90
2017,05,23,16,12,21.90
2017,05,23,16,13,21.80
2017,05,23,16,14,21.70
2017,05,23,16,15,21.70
2017,05,23,16,16,21.70
2017,05,23,16,17,21.70
2017,05,23,16,18,21.60
2017,05,23,16,19,21.50
2017,05,23,16,20,21.40
2017,05,23,16,21,21.40
2017,05,23,16,22,21.30
2017,05,23,16,23,21.20
2017,05,23,16,24,20.90
2017,05,23,16,25,20.80
2017,05,23,16,26,20.60
2017,05,23,16,27,20.50
2017,05,23,16,28,20.40
2017,05,23,16,29,20.40
2017,05,23,16,30,20.30
2017,05,23,16,31,20.30
2017,05,23,16,32,20.30
2017,05,23,16,33,20.30
2017,05,23,16,34,20.20
2017,05,23,16,35,20.20
2017,05,23,16,36,20.20
2017,05,23,16,37,20.30
2017,05,23,16,38,20.30
2017,05,23,16,39,20.30
2017,05,23,16,40,20.30
2017,05,23,16,41,20.30
2017,05,23,16,42,20.30
2017,05,23,16,43,20.20
2017,05,23,16,44,20.20
2017,05,23,16,45,20.10
2017,05,23,16,46,20.00
2017,05,23,16,47,20.00
2017,05,23,16,48,19.90
2017,05,23,16,49,19.80
2017,05,23,16,50,19.80
2017,05,23,16,51,19.70
2017,05,23,16,52,19.70
2017,05,23,16,53,19.60
2017,05,23,16,54,19.60
2017,05,23,16,55,19.50
2017,05,23,16,56,19.50
2017,05,23,16,57,19.50
2017,05,23,16,58,19.50
2017,05,23,16,59,19.50
2017,05,23,17,00,19.60
2017,05,23,17,01,19.70
2017,05,23,17,02,19.70
2017,05,23,17,03,19.70
2017,05,23,17,04,19.70
2017,05,23,17,05,19.60
2017,05,23,17,06,19.50
2017,05,23,17,07,19.40
2017,05,23,17,08,19.40
2017,05,23,17,09,19.40
2017,05,23,17,10,19.40
2017,05,23,17,11,19.50
2017,05,23,17,12,19.60
2017,05,23,17,13,19.50
2017,05,23,17,14,19.50
2017,05,23,17,15,19.40
2017,05,23,17,16,19.30
2017,05,23,17,17,19.30
2017,05,23,17,18,19.30
2017,05,23,17,19,19.30
2017,05,23,17,20,19.20
2017,05,23,17,21,19.20